Time,TemperatureF,DewpointF,PressureIn,WindDirection,WindDirectionDegrees,WindSpeedMPH,WindSpeedGustMPH,Humidity,HourlyPrecipIn,Conditions,Clouds,dailyrainin,SoftwareType,DateUTC
2013-04-25 00:00:00,60.4,59.3,30.07,NNW,347,0.0,0.0,96,0.00,,,0.00,WeatherCatV1.11B39,2013-04-25 04:00:00,
2013-04-25 00:01:00,60.4,59.3,30.07,NNW,347,0.0,0.0,96,0.00,,,0.00,WeatherCatV1.11B39,2013-04-25 04:01:00,
2013-04-25 00:06:00,60.2,59.1,30.07,North,349,0.0,0.0,96,0.00,,,0.00,WeatherCatV1.11B39,2013-04-25 04:06:00,
2013-04-25 00:11:00,60.1,59.0,30.07,North,349,0.0,0.0,96,0.00,,,0.00,WeatherCatV1.11B39,2013-04-25 04:11:00,
2013-04-25 00:16:00,60.1,59.0,30.07,North,349,0.0,0.0,96,0.00,,,0.00,WeatherCatV1.11B39,2013-04-25 04:16:00,
2013-04-25 00:21:00,59.8,58.4,30.07,North,349,0.0,2.0,95,0.00,,,0.00,WeatherCatV1.11B39,2013-04-25 04:21:00,
2013-04-25 00:26:00,59.5,58.1,30.07,West,280,0.0,0.0,95,0.00,,,0.00,WeatherCatV1.11B39,2013-04-25 04:26:00,
2013-04-25 00:31:00,59.5,58.4,30.07,West,280,0.0,0.0,96,0.00,,,0.00,WeatherCatV1.11B39,2013-04-25 04:31:00,
2013-04-25 00:36:00,59.2,58.1,30.07,West,280,0.0,0.0,96,0.00,,,0.00,WeatherCatV1.11B39,2013-04-25 04:36:00,
2013-04-25 00:41:00,58.9,57.5,30.07,West,280,0.0,0.0,95,0.00,,,0.00,WeatherCatV1.11B39,2013-04-25 04:41:00,
2013-04-25 00:46:00,58.4,57.0,30.08,West,272,0.0,0.0,95,0.00,,,0.00,WeatherCatV1.11B39,2013-04-25 04:46:00,
2013-04-25 00:51:00,58.1,56.7,30.08,West,272,0.0,0.0,95,0.00,,,0.00,WeatherCatV1.11B39,2013-04-25 04:51:00,
2013-04-25 00:56:00,58.0,56.6,30.08,NNW,328,1.0,1.0,95,0.00,,,0.00,WeatherCatV1.11B39,2013-04-25 04:56:00,
2013-04-25 01:01:00,58.0,56.6,30.08,NNW,328,0.0,0.0,95,0.00,,,0.00,WeatherCatV1.11B39,2013-04-25 05:01:00,
2013-04-25 01:06:00,57.6,55.9,30.08,NW,326,0.0,0.0,94,0.00,,,0.00,WeatherCatV1.11B39,2013-04-25 05:06:00,
2013-04-25 01:11:00,57.3,55.6,30.08,NNW,328,0.0,0.0,94,0.00,,,0.00,WeatherCatV1.11B39,2013-04-25 05:11:00,
2013-04-25 01:16:00,57.0,55.0,30.08,NNW,328,0.0,0.0,93,0.00,,,0.00,WeatherCatV1.11B39,2013-04-25 05:16:00,
2013-04-25 01:21:00,56.9,54.9,30.08,NW,325,0.0,5.0,93,0.00,,,0.00,WeatherCatV1.11B39,2013-04-25 05:21:00,
2013-04-25 01:26:00,56.6,54.6,30.08,North,357,0.0,1.0,93,0.00,,,0.00,WeatherCatV1.11B39,2013-04-25 05:26:00,
2013-04-25 01:31:00,56.5,54.2,30.08,North,357,0.0,0.0,92,0.00,,,0.00,WeatherCatV1.11B39,2013-04-25 05:31:00,
2013-04-25 01:36:00,56.2,53.9,30.08,North,356,0.0,0.0,92,0.00,,,0.00,WeatherCatV1.11B39,2013-04-25 05:36:00,
2013-04-25 01:41:00,56.0,53.7,30.08,NNW,330,0.0,0.0,92,0.00,,,0.00,WeatherCatV1.11B39,2013-04-25 05:41:00,
2013-04-25 01:46:00,56.0,53.7,30.08,NNW,330,0.0,0.0,92,0.00,,,0.00,WeatherCatV1.11B39,2013-04-25 05:46:00,
2013-04-25 01:51:00,55.9,53.6,30.08,NNW,330,0.0,0.0,92,0.00,,,0.00,WeatherCatV1.11B39,2013-04-25 05:51:00,
2013-04-25 01:56:00,55.7,53.4,30.08,NNW,330,0.0,0.0,92,0.00,,,0.00,WeatherCatV1.11B39,2013-04-25 05:56:00,
2013-04-25 02:01:00,55.7,53.4,30.08,NNW,330,0.0,0.0,92,0.00,,,0.00,WeatherCatV1.11B39,2013-04-25 06:01:00,
2013-04-25 02:06:00,55.9,53.6,30.08,North,349,1.0,5.0,92,0.00,,,0.00,WeatherCatV1.11B39,2013-04-25 06:06:00,
2013-04-25 02:11:00,55.9,53.9,30.08,North,356,1.0,5.0,93,0.00,,,0.00,WeatherCatV1.11B39,2013-04-25 06:11:00,
2013-04-25 02:16:00,55.9,54.2,30.08,NNW,342,0.0,0.0,94,0.00,,,0.00,WeatherCatV1.11B39,2013-04-25 06:16:00,
2013-04-25 02:21:00,55.6,53.6,30.08,North,6,0.0,1.0,93,0.00,,,0.00,WeatherCatV1.11B39,2013-04-25 06:21:00,
2013-04-25 02:26:00,55.4,53.7,30.08,North,3,0.0,0.0,94,0.00,,,0.00,WeatherCatV1.11B39,2013-04-25 06:26:00,
2013-04-25 02:31:00,55.3,53.6,30.07,North,1,3.0,3.0,94,0.00,,,0.00,WeatherCatV1.11B39,2013-04-25 06:31:00,
2013-04-25 02:35:00,55.0,53.3,30.07,North,1,0.0,6.0,94,0.00,,,0.00,WeatherCatV1.11B39,2013-04-25 06:35:00,
2013-04-25 02:40:00,54.8,53.1,30.07,WNW,291,0.0,4.0,94,0.00,,,0.00,WeatherCatV1.11B39,2013-04-25 06:40:00,
2013-04-25 02:45:00,54.7,53.0,30.07,NNW,347,0.0,0.0,94,0.00,,,0.00,WeatherCatV1.11B39,2013-04-25 06:45:00,
2013-04-25 02:50:00,54.7,53.3,30.07,NNW,347,0.0,0.0,95,0.00,,,0.00,WeatherCatV1.11B39,2013-04-25 06:50:00,
2013-04-25 02:55:00,54.2,52.5,30.07,North,0,0.0,3.0,94,0.00,,,0.00,WeatherCatV1.11B39,2013-04-25 06:55:00,
2013-04-25 03:00:00,54.1,52.4,30.07,WSW,247,0.0,1.0,94,0.00,,,0.00,WeatherCatV1.11B39,2013-04-25 07:00:00,
2013-04-25 03:05:00,54.1,52.4,30.07,NW,322,0.0,0.0,94,0.00,,,0.00,WeatherCatV1.11B39,2013-04-25 07:05:00,
2013-04-25 03:10:00,53.6,51.9,30.07,NW,322,0.0,0.0,94,0.00,,,0.00,WeatherCatV1.11B39,2013-04-25 07:10:00,
2013-04-25 03:15:00,53.5,51.5,30.07,North,354,3.0,3.0,93,0.00,,,0.00,WeatherCatV1.11B39,2013-04-25 07:15:00,
2013-04-25 03:20:00,53.3,51.3,30.07,North,359,0.0,7.0,93,0.00,,,0.00,WeatherCatV1.11B39,2013-04-25 07:20:00,
2013-04-25 03:25:00,53.2,51.2,30.07,North,353,0.0,0.0,93,0.00,,,0.00,WeatherCatV1.11B39,2013-04-25 07:25:00,
2013-04-25 03:30:00,53.2,50.9,30.08,North,353,0.0,0.0,92,0.00,,,0.00,WeatherCatV1.11B39,2013-04-25 07:30:00,
2013-04-25 03:35:00,53.1,50.8,30.08,North,354,0.0,0.0,92,0.00,,,0.00,WeatherCatV1.11B39,2013-04-25 07:35:00,
2013-04-25 03:40:00,52.9,50.6,30.08,North,354,0.0,0.0,92,0.00,,,0.00,WeatherCatV1.11B39,2013-04-25 07:40:00,
2013-04-25 03:45:00,52.8,50.5,30.08,North,6,0.0,3.0,92,0.00,,,0.00,WeatherCatV1.11B39,2013-04-25 07:45:00,
2013-04-25 03:50:00,52.5,49.9,30.08,North,357,0.0,6.0,91,0.00,,,0.00,WeatherCatV1.11B39,2013-04-25 07:50:00,
2013-04-25 03:55:00,52.5,50.2,30.08,North,357,0.0,0.0,92,0.00,,,0.00,WeatherCatV1.11B39,2013-04-25 07:55:00,
2013-04-25 04:00:00,52.0,49.2,30.08,North,357,0.0,0.0,90,0.00,,,0.00,WeatherCatV1.11B39,2013-04-25 08:00:00,
2013-04-25 04:05:00,51.7,48.6,30.08,North,356,0.0,0.0,89,0.00,,,0.00,WeatherCatV1.11B39,2013-04-25 08:05:00,
2013-04-25 04:10:00,51.3,48.2,30.08,North,354,7.0,7.0,89,0.00,,,0.00,WeatherCatV1.11B39,2013-04-25 08:10:00,
2013-04-25 04:15:00,51.0,47.3,30.10,NNW,339,2.0,5.0,87,0.00,,,0.00,WeatherCatV1.11B39,2013-04-25 08:15:00,
2013-04-25 04:20:00,50.7,46.4,30.10,NNW,336,6.0,6.0,85,0.00,,,0.00,WeatherCatV1.11B39,2013-04-25 08:20:00,
2013-04-25 04:25:00,50.5,45.8,30.10,NNW,346,0.0,4.0,84,0.00,,,0.00,WeatherCatV1.11B39,2013-04-25 08:25:00,
2013-04-25 04:30:00,50.5,45.8,30.10,NNW,344,0.0,0.0,84,0.00,,,0.00,WeatherCatV1.11B39,2013-04-25 08:30:00,
2013-04-25 04:35:00,50.5,45.8,30.10,NNW,344,0.0,0.0,84,0.00,,,0.00,WeatherCatV1.11B39,2013-04-25 08:35:00,
2013-04-25 04:40:00,49.4,44.8,30.10,NNW,340,0.0,0.0,84,0.00,,,0.00,WeatherCatV1.11B39,2013-04-25 08:40:00,
2013-04-25 04:45:00,49.2,44.6,30.10,NNW,340,0.0,0.0,84,0.00,,,0.00,WeatherCatV1.11B39,2013-04-25 08:45:00,
2013-04-25 04:51:00,48.9,44.6,30.10,NNW,340,0.0,0.0,85,0.00,,,0.00,WeatherCatV1.11B39,2013-04-25 08:51:00,
2013-04-25 04:56:00,48.9,44.6,30.10,NNW,340,0.0,0.0,85,0.00,,,0.00,WeatherCatV1.11B39,2013-04-25 08:56:00,
2013-04-25 05:01:00,48.8,44.5,30.11,NNW,340,0.0,0.0,85,0.00,,,0.00,WeatherCatV1.11B39,2013-04-25 09:01:00,
2013-04-25 05:06:00,48.6,44.3,30.11,NNW,340,0.0,0.0,85,0.00,,,0.00,WeatherCatV1.11B39,2013-04-25 09:06:00,
2013-04-25 05:11:00,48.3,43.7,30.11,NNW,335,0.0,0.0,84,0.00,,,0.00,WeatherCatV1.11B39,2013-04-25 09:11:00,
2013-04-25 05:16:00,48.0,42.8,30.13,NNW,335,0.0,2.0,82,0.00,,,0.00,WeatherCatV1.11B39,2013-04-25 09:16:00,
2013-04-25 05:21:00,48.0,42.8,30.13,NNW,330,0.0,1.0,82,0.00,,,0.00,WeatherCatV1.11B39,2013-04-25 09:21:00,
2013-04-25 05:26:00,48.0,42.8,30.13,NNW,330,0.0,0.0,82,0.00,,,0.00,WeatherCatV1.11B39,2013-04-25 09:26:00,
2013-04-25 05:31:00,47.9,43.0,30.13,NNW,329,0.0,0.0,83,0.00,,,0.00,WeatherCatV1.11B39,2013-04-25 09:31:00,
2013-04-25 05:36:00,47.6,42.7,30.13,NNW,329,0.0,0.0,83,0.00,,,0.00,WeatherCatV1.11B39,2013-04-25 09:36:00,
2013-04-25 05:41:00,47.3,42.1,30.13,NNW,329,0.0,0.0,82,0.00,,,0.00,WeatherCatV1.11B39,2013-04-25 09:41:00,
2013-04-25 05:46:00,47.1,41.9,30.14,NNW,329,0.0,0.0,82,0.00,,,0.00,WeatherCatV1.11B39,2013-04-25 09:46:00,
2013-04-25 05:51:00,46.8,41.9,30.14,NNW,329,0.0,0.0,83,0.00,,,0.00,WeatherCatV1.11B39,2013-04-25 09:51:00,
2013-04-25 05:56:00,46.7,41.8,30.14,NNW,332,0.0,0.0,83,0.00,,,0.00,WeatherCatV1.11B39,2013-04-25 09:56:00,
2013-04-25 06:01:00,46.4,41.5,30.14,NNW,332,0.0,0.0,83,0.00,,,0.00,WeatherCatV1.11B39,2013-04-25 10:01:00,
2013-04-25 06:06:00,46.2,41.6,30.14,NNW,332,0.0,0.0,84,0.00,,,0.00,WeatherCatV1.11B39,2013-04-25 10:06:00,
2013-04-25 06:11:00,46.0,41.7,30.14,NNW,332,0.0,0.0,85,0.00,,,0.00,WeatherCatV1.11B39,2013-04-25 10:11:00,
2013-04-25 06:16:00,46.0,41.7,30.14,NNW,332,0.0,0.0,85,0.00,,,0.00,WeatherCatV1.11B39,2013-04-25 10:16:00,
2013-04-25 06:21:00,45.5,41.3,30.14,NNW,332,0.0,0.0,85,0.00,,,0.00,WeatherCatV1.11B39,2013-04-25 10:21:00,
2013-04-25 06:26:00,45.5,41.6,30.14,NNW,332,0.0,0.0,86,0.00,,,0.00,WeatherCatV1.11B39,2013-04-25 10:26:00,
2013-04-25 06:31:00,45.5,41.9,30.15,NNW,332,0.0,0.0,87,0.00,,,0.00,WeatherCatV1.11B39,2013-04-25 10:31:00,
2013-04-25 06:36:00,45.1,41.5,30.15,NNW,332,0.0,0.0,87,0.00,,,0.00,WeatherCatV1.11B39,2013-04-25 10:36:00,
2013-04-25 06:41:00,44.9,41.3,30.15,NNW,332,0.0,0.0,87,0.00,,,0.00,WeatherCatV1.11B39,2013-04-25 10:41:00,
2013-04-25 06:46:00,44.9,41.6,30.15,NNW,332,0.0,0.0,88,0.00,,,0.00,WeatherCatV1.11B39,2013-04-25 10:46:00,
2013-04-25 06:51:00,44.9,41.6,30.15,NNW,332,0.0,0.0,88,0.00,,,0.00,WeatherCatV1.11B39,2013-04-25 10:51:00,
2013-04-25 06:56:00,44.9,41.6,30.15,NNW,332,0.0,0.0,88,0.00,,,0.00,WeatherCatV1.11B39,2013-04-25 10:56:00,
2013-04-25 07:01:00,44.5,41.2,30.15,NNW,330,0.0,0.0,88,0.00,,,0.00,WeatherCatV1.11B39,2013-04-25 11:01:00,
2013-04-25 07:06:00,44.3,41.0,30.15,NNW,330,0.0,0.0,88,0.00,,,0.00,WeatherCatV1.11B39,2013-04-25 11:06:00,
2013-04-25 07:11:00,44.3,41.0,30.15,NNW,330,0.0,0.0,88,0.00,,,0.00,WeatherCatV1.11B39,2013-04-25 11:11:00,
2013-04-25 07:16:00,44.6,41.3,30.16,NNW,330,0.0,0.0,88,0.00,,,0.00,WeatherCatV1.11B39,2013-04-25 11:16:00,
2013-04-25 07:21:00,44.8,41.8,30.16,NNW,329,0.0,0.0,89,0.00,,,0.00,WeatherCatV1.11B39,2013-04-25 11:21:00,
2013-04-25 07:26:00,45.2,42.2,30.16,NNW,329,0.0,0.0,89,0.00,,,0.00,WeatherCatV1.11B39,2013-04-25 11:26:00,
2013-04-25 07:31:00,45.7,42.6,30.16,NNW,329,0.0,0.0,89,0.00,,,0.00,WeatherCatV1.11B39,2013-04-25 11:31:00,
2013-04-25 07:36:00,46.0,42.9,30.16,NNW,329,0.0,0.0,89,0.00,,,0.00,WeatherCatV1.11B39,2013-04-25 11:36:00,
2013-04-25 07:41:00,46.5,43.4,30.16,NNW,329,0.0,0.0,89,0.00,,,0.00,WeatherCatV1.11B39,2013-04-25 11:41:00,
2013-04-25 07:46:00,47.0,43.0,30.17,NNW,329,0.0,0.0,86,0.00,,,0.00,WeatherCatV1.11B39,2013-04-25 11:46:00,
2013-04-25 07:51:00,47.1,43.1,30.17,NNW,329,0.0,0.0,86,0.00,,,0.00,WeatherCatV1.11B39,2013-04-25 11:51:00,
2013-04-25 07:56:00,47.3,43.3,30.17,NNW,328,0.0,0.0,86,0.00,,,0.00,WeatherCatV1.11B39,2013-04-25 11:56:00,
2013-04-25 08:01:00,47.6,43.6,30.18,NNW,328,0.0,0.0,86,0.00,,,0.00,WeatherCatV1.11B39,2013-04-25 12:01:00,
2013-04-25 08:06:00,48.2,44.2,30.18,WNW,284,0.0,0.0,86,0.00,,,0.00,WeatherCatV1.11B39,2013-04-25 12:06:00,
2013-04-25 08:11:00,48.3,44.3,30.18,West,280,0.0,0.0,86,0.00,,,0.00,WeatherCatV1.11B39,2013-04-25 12:11:00,
2013-04-25 08:16:00,48.8,44.8,30.18,West,281,0.0,0.0,86,0.00,,,0.00,WeatherCatV1.11B39,2013-04-25 12:16:00,
2013-04-25 08:21:00,49.1,43.2,30.18,North,353,0.0,0.0,80,0.00,,,0.00,WeatherCatV1.11B39,2013-04-25 12:21:00,
2013-04-25 08:26:00,49.1,42.2,30.18,NNW,346,0.0,0.0,77,0.00,,,0.00,WeatherCatV1.11B39,2013-04-25 12:26:00,
2013-04-25 08:31:00,49.4,41.8,30.18,NNW,330,0.0,0.0,75,0.00,,,0.00,WeatherCatV1.11B39,2013-04-25 12:31:00,
2013-04-25 08:36:00,49.6,42.3,30.18,NNW,330,0.0,0.0,76,0.00,,,0.00,WeatherCatV1.11B39,2013-04-25 12:36:00,
2013-04-25 08:41:00,50.1,42.8,30.18,NNW,330,0.0,0.0,76,0.00,,,0.00,WeatherCatV1.11B39,2013-04-25 12:41:00,
2013-04-25 08:46:00,50.1,42.1,30.18,NW,325,0.0,0.0,74,0.00,,,0.00,WeatherCatV1.11B39,2013-04-25 12:46:00,
2013-04-25 08:51:00,50.5,42.5,30.18,NW,326,0.0,0.0,74,0.00,,,0.00,WeatherCatV1.11B39,2013-04-25 12:51:00,
2013-04-25 08:56:00,50.7,42.7,30.18,NW,315,0.0,0.0,74,0.00,,,0.00,WeatherCatV1.11B39,2013-04-25 12:56:00,
2013-04-25 09:01:00,51.0,41.9,30.18,NW,315,0.0,0.0,71,0.00,,,0.00,WeatherCatV1.11B39,2013-04-25 13:01:00,
2013-04-25 09:06:00,51.0,42.3,30.18,NNW,339,0.0,0.0,72,0.00,,,0.00,WeatherCatV1.11B39,2013-04-25 13:06:00,
2013-04-25 09:11:00,50.8,42.8,30.18,NNW,336,0.0,5.0,74,0.00,,,0.00,WeatherCatV1.11B39,2013-04-25 13:11:00,
2013-04-25 09:16:00,51.3,43.3,30.19,NW,313,0.0,1.0,74,0.00,,,0.00,WeatherCatV1.11B39,2013-04-25 13:16:00,
2013-04-25 09:21:00,51.6,42.9,30.19,NNW,340,0.0,0.0,72,0.00,,,0.00,WeatherCatV1.11B39,2013-04-25 13:21:00,
2013-04-25 09:26:00,52.2,42.7,30.19,NNW,347,0.0,1.0,70,0.00,,,0.00,WeatherCatV1.11B39,2013-04-25 13:26:00,
2013-04-25 09:31:00,52.8,42.5,30.19,NNW,336,2.0,2.0,68,0.00,,,0.00,WeatherCatV1.11B39,2013-04-25 13:31:00,
2013-04-25 09:36:00,52.9,42.6,30.19,NNW,336,0.0,0.0,68,0.00,,,0.00,WeatherCatV1.11B39,2013-04-25 13:36:00,
2013-04-25 09:41:00,53.1,42.0,30.19,NNW,346,1.0,5.0,66,0.00,,,0.00,WeatherCatV1.11B39,2013-04-25 13:41:00,
2013-04-25 09:46:00,53.1,42.0,30.19,NNW,343,5.0,5.0,66,0.00,,,0.00,WeatherCatV1.11B39,2013-04-25 13:46:00,
2013-04-25 09:51:00,53.3,41.4,30.19,NW,313,0.0,0.0,64,0.00,,,0.00,WeatherCatV1.11B39,2013-04-25 13:51:00,
2013-04-25 09:56:00,53.6,41.3,30.19,NW,312,0.0,0.0,63,0.00,,,0.00,WeatherCatV1.11B39,2013-04-25 13:56:00,
2013-04-25 10:01:00,53.6,40.9,30.19,NW,315,0.0,1.0,62,0.00,,,0.00,WeatherCatV1.11B39,2013-04-25 14:01:00,
2013-04-25 10:06:00,54.4,42.5,30.19,SSW,198,1.0,5.0,64,0.00,,,0.00,WeatherCatV1.11B39,2013-04-25 14:06:00,
2013-04-25 10:11:00,54.4,43.3,30.19,South,175,0.0,6.0,66,0.00,,,0.00,WeatherCatV1.11B39,2013-04-25 14:11:00,
2013-04-25 10:16:00,54.7,43.2,30.20,South,175,2.0,2.0,65,0.00,,,0.00,WeatherCatV1.11B39,2013-04-25 14:16:00,
2013-04-25 10:21:00,55.1,43.9,30.20,WSW,239,0.0,3.0,66,0.00,,,0.00,WeatherCatV1.11B39,2013-04-25 14:21:00,
2013-04-25 10:26:00,55.4,42.6,30.20,SSW,199,2.0,3.0,62,0.00,,,0.00,WeatherCatV1.11B39,2013-04-25 14:26:00,
2013-04-25 10:31:00,55.3,43.3,30.20,South,172,0.0,6.0,64,0.00,,,0.00,WeatherCatV1.11B39,2013-04-25 14:31:00,
2013-04-25 10:36:00,55.6,44.4,30.20,South,175,0.0,2.0,66,0.00,,,0.00,WeatherCatV1.11B39,2013-04-25 14:36:00,
2013-04-25 10:41:00,56.2,43.8,30.20,South,188,0.0,1.0,63,0.00,,,0.00,WeatherCatV1.11B39,2013-04-25 14:41:00,
2013-04-25 10:46:00,56.6,42.9,30.21,WNW,282,0.0,0.0,60,0.00,,,0.00,WeatherCatV1.11B39,2013-04-25 14:46:00,
2013-04-25 10:51:00,57.0,43.7,30.21,SE,127,2.0,3.0,61,0.00,,,0.00,WeatherCatV1.11B39,2013-04-25 14:51:00,
2013-04-25 10:56:00,57.2,43.9,30.21,SE,141,0.0,0.0,61,0.00,,,0.00,WeatherCatV1.11B39,2013-04-25 14:56:00,
2013-04-25 11:01:00,57.3,43.1,30.22,NW,306,0.0,5.0,59,0.00,,,0.00,WeatherCatV1.11B39,2013-04-25 15:01:00,
2013-04-25 11:06:00,57.6,43.8,30.22,NW,308,0.0,0.0,60,0.00,,,0.00,WeatherCatV1.11B39,2013-04-25 15:06:00,
2013-04-25 11:11:00,58.0,43.3,30.22,SSE,167,2.0,6.0,58,0.00,,,0.00,WeatherCatV1.11B39,2013-04-25 15:11:00,
2013-04-25 11:16:00,58.1,43.4,30.22,SSE,167,0.0,2.0,58,0.00,,,0.00,WeatherCatV1.11B39,2013-04-25 15:16:00,
2013-04-25 11:21:00,58.3,43.6,30.22,North,359,0.0,0.0,58,0.00,,,0.00,WeatherCatV1.11B39,2013-04-25 15:21:00,
2013-04-25 11:26:00,58.9,44.1,30.22,NE,37,0.0,1.0,58,0.00,,,0.00,WeatherCatV1.11B39,2013-04-25 15:26:00,
2013-04-25 11:31:00,58.9,44.1,30.23,North,359,0.0,2.0,58,0.00,,,0.00,WeatherCatV1.11B39,2013-04-25 15:31:00,
2013-04-25 11:36:00,59.2,44.4,30.23,ESE,106,0.0,2.0,58,0.00,,,0.00,WeatherCatV1.11B39,2013-04-25 15:36:00,
2013-04-25 11:41:00,59.5,44.7,30.23,East,96,0.0,0.0,58,0.00,,,0.00,WeatherCatV1.11B39,2013-04-25 15:41:00,
2013-04-25 11:46:00,59.6,44.8,30.23,SE,145,0.0,3.0,58,0.00,,,0.00,WeatherCatV1.11B39,2013-04-25 15:46:00,
2013-04-25 11:51:00,60.1,45.3,30.23,SE,138,0.0,1.0,58,0.00,,,0.00,WeatherCatV1.11B39,2013-04-25 15:51:00,
2013-04-25 11:56:00,60.5,45.6,30.23,SSE,168,0.0,0.0,58,0.00,,,0.00,WeatherCatV1.11B39,2013-04-25 15:56:00,
2013-04-25 12:01:00,60.7,45.8,30.23,ENE,66,0.0,2.0,58,0.00,,,0.00,WeatherCatV1.11B39,2013-04-25 16:01:00,
2013-04-25 12:06:00,60.9,46.0,30.23,ESE,123,4.0,4.0,58,0.00,,,0.00,WeatherCatV1.11B39,2013-04-25 16:06:00,
2013-04-25 12:11:00,61.2,46.3,30.23,East,80,1.0,3.0,58,0.00,,,0.00,WeatherCatV1.11B39,2013-04-25 16:11:00,
2013-04-25 12:16:00,61.3,46.4,30.23,SSE,154,0.0,0.0,58,0.00,,,0.00,WeatherCatV1.11B39,2013-04-25 16:16:00,
2013-04-25 12:21:00,61.6,46.7,30.23,SE,124,0.0,5.0,58,0.00,,,0.00,WeatherCatV1.11B39,2013-04-25 16:21:00,
2013-04-25 12:26:00,61.8,41.9,30.23,ESE,112,0.0,5.0,48,0.00,,,0.00,WeatherCatV1.11B39,2013-04-25 16:26:00,
2013-04-25 12:31:00,62.1,41.6,30.23,NNW,333,5.0,5.0,47,0.00,,,0.00,WeatherCatV1.11B39,2013-04-25 16:31:00,
2013-04-25 12:36:00,62.6,42.1,30.23,NNW,330,0.0,7.0,47,0.00,,,0.00,WeatherCatV1.11B39,2013-04-25 16:36:00,
2013-04-25 12:41:00,62.9,42.4,30.23,SSE,154,0.0,5.0,47,0.00,,,0.00,WeatherCatV1.11B39,2013-04-25 16:41:00,
2013-04-25 12:46:00,63.4,42.8,30.22,ESE,109,0.0,3.0,47,0.00,,,0.00,WeatherCatV1.11B39,2013-04-25 16:46:00,
2013-04-25 12:51:00,63.5,42.9,30.22,ENE,75,2.0,2.0,47,0.00,,,0.00,WeatherCatV1.11B39,2013-04-25 16:51:00,
2013-04-25 12:56:00,63.5,42.9,30.22,SSE,155,0.0,2.0,47,0.00,,,0.00,WeatherCatV1.11B39,2013-04-25 16:56:00,
2013-04-25 13:01:00,63.9,43.3,30.22,SSE,148,2.0,6.0,47,0.00,,,0.00,WeatherCatV1.11B39,2013-04-25 17:01:00,
2013-04-25 13:06:00,64.0,43.4,30.22,SSW,192,3.0,5.0,47,0.00,,,0.00,WeatherCatV1.11B39,2013-04-25 17:06:00,
2013-04-25 13:11:00,64.2,43.5,30.22,SE,134,7.0,8.0,47,0.00,,,0.00,WeatherCatV1.11B39,2013-04-25 17:11:00,
2013-04-25 13:16:00,64.3,43.6,30.22,SSE,147,5.0,7.0,47,0.00,,,0.00,WeatherCatV1.11B39,2013-04-25 17:16:00,
2013-04-25 13:21:00,64.3,41.9,30.22,SE,136,2.0,6.0,44,0.00,,,0.00,WeatherCatV1.11B39,2013-04-25 17:21:00,
2013-04-25 13:26:00,64.7,44.0,30.22,South,181,0.0,2.0,47,0.00,,,0.00,WeatherCatV1.11B39,2013-04-25 17:26:00,
2013-04-25 13:31:00,65.3,41.6,30.22,ESE,110,2.0,6.0,42,0.00,,,0.00,WeatherCatV1.11B39,2013-04-25 17:31:00,
2013-04-25 13:36:00,65.3,42.2,30.22,East,93,3.0,3.0,43,0.00,,,0.00,WeatherCatV1.11B39,2013-04-25 17:36:00,
2013-04-25 13:41:00,65.6,40.6,30.22,NW,319,0.0,1.0,40,0.00,,,0.00,WeatherCatV1.11B39,2013-04-25 17:41:00,
2013-04-25 13:46:00,66.1,40.4,30.21,SSE,150,7.0,10.0,39,0.00,,,0.00,WeatherCatV1.11B39,2013-04-25 17:46:00,
2013-04-25 13:51:00,66.1,41.7,30.21,South,169,0.0,1.0,41,0.00,,,0.00,WeatherCatV1.11B39,2013-04-25 17:51:00,
2013-04-25 13:56:00,66.6,38.1,30.21,NE,55,0.0,3.0,35,0.00,,,0.00,WeatherCatV1.11B39,2013-04-25 17:56:00,
2013-04-25 14:01:00,66.8,39.7,30.20,SSE,157,2.0,6.0,37,0.00,,,0.00,WeatherCatV1.11B39,2013-04-25 18:01:00,
2013-04-25 14:06:00,67.1,40.0,30.20,SE,130,6.0,8.0,37,0.00,,,0.00,WeatherCatV1.11B39,2013-04-25 18:06:00,
2013-04-25 14:11:00,67.1,40.0,30.20,East,99,1.0,3.0,37,0.00,,,0.00,WeatherCatV1.11B39,2013-04-25 18:11:00,
2013-04-25 14:16:00,67.3,40.1,30.21,SE,136,4.0,6.0,37,0.00,,,0.00,WeatherCatV1.11B39,2013-04-25 18:16:00,
2013-04-25 14:21:00,67.3,42.8,30.21,SSE,162,8.0,13.0,41,0.00,,,0.00,WeatherCatV1.11B39,2013-04-25 18:21:00,
2013-04-25 14:26:00,67.6,34.2,30.21,NE,40,6.0,6.0,29,0.00,,,0.00,WeatherCatV1.11B39,2013-04-25 18:26:00,
2013-04-25 14:31:00,68.1,27.8,30.20,West,281,2.0,3.0,22,0.00,,,0.00,WeatherCatV1.11B39,2013-04-25 18:31:00,
2013-04-25 14:36:00,69.3,25.3,30.20,WSW,246,0.0,3.0,19,0.00,,,0.00,WeatherCatV1.11B39,2013-04-25 18:36:00,
2013-04-25 14:41:00,69.4,31.0,30.20,North,0,4.0,4.0,24,0.00,,,0.00,WeatherCatV1.11B39,2013-04-25 18:41:00,
2013-04-25 14:46:00,69.4,21.3,30.20,North,357,2.0,5.0,16,0.00,,,0.00,WeatherCatV1.11B39,2013-04-25 18:46:00,
2013-04-25 14:51:00,70.6,20.7,30.20,NNE,32,3.0,4.0,15,0.00,,,0.00,WeatherCatV1.11B39,2013-04-25 18:51:00,
2013-04-25 14:56:00,70.9,25.3,30.20,North,0,4.0,5.0,18,0.00,,,0.00,WeatherCatV1.11B39,2013-04-25 18:56:00,
2013-04-25 15:01:00,70.8,20.9,30.20,WSW,253,5.0,5.0,15,0.00,,,0.00,WeatherCatV1.11B39,2013-04-25 19:01:00,
2013-04-25 15:06:00,70.8,17.5,30.20,NNW,343,8.0,8.0,13,0.00,,,0.00,WeatherCatV1.11B39,2013-04-25 19:06:00,
2013-04-25 15:11:00,70.6,20.7,30.20,NE,45,2.0,5.0,15,0.00,,,0.00,WeatherCatV1.11B39,2013-04-25 19:11:00,
2013-04-25 15:16:00,71.1,24.1,30.19,NNE,23,6.0,6.0,17,0.00,,,0.00,WeatherCatV1.11B39,2013-04-25 19:16:00,
2013-04-25 15:21:00,70.9,20.9,30.19,North,0,5.0,7.0,15,0.00,,,0.00,WeatherCatV1.11B39,2013-04-25 19:21:00,
2013-04-25 15:26:00,71.1,25.4,30.19,North,354,3.0,4.0,18,0.00,,,0.00,WeatherCatV1.11B39,2013-04-25 19:26:00,
2013-04-25 15:31:00,71.3,24.2,30.19,NNW,335,5.0,12.0,17,0.00,,,0.00,WeatherCatV1.11B39,2013-04-25 19:31:00,
2013-04-25 15:36:00,70.9,25.3,30.19,North,0,2.0,3.0,18,0.00,,,0.00,WeatherCatV1.11B39,2013-04-25 19:36:00,
2013-04-25 15:41:00,71.1,25.4,30.19,North,0,5.0,7.0,18,0.00,,,0.00,WeatherCatV1.11B39,2013-04-25 19:41:00,
2013-04-25 15:46:00,71.1,21.1,30.18,NE,52,4.0,7.0,15,0.00,,,0.00,WeatherCatV1.11B39,2013-04-25 19:46:00,
2013-04-25 15:51:00,70.9,22.5,30.18,NNW,343,4.0,7.0,16,0.00,,,0.00,WeatherCatV1.11B39,2013-04-25 19:51:00,
2013-04-25 15:56:00,70.9,26.6,30.18,North,357,6.0,7.0,19,0.00,,,0.00,WeatherCatV1.11B39,2013-04-25 19:56:00,
2013-04-25 16:01:00,70.9,22.5,30.18,West,274,3.0,4.0,16,0.00,,,0.00,WeatherCatV1.11B39,2013-04-25 20:01:00,
2013-04-25 16:06:00,71.3,26.9,30.18,North,0,2.0,7.0,19,0.00,,,0.00,WeatherCatV1.11B39,2013-04-25 20:06:00,
2013-04-25 16:11:00,71.3,22.8,30.18,North,349,3.0,10.0,16,0.00,,,0.00,WeatherCatV1.11B39,2013-04-25 20:11:00,
2013-04-25 16:16:00,71.3,22.8,30.18,NW,323,3.0,6.0,16,0.00,,,0.00,WeatherCatV1.11B39,2013-04-25 20:16:00,
2013-04-25 16:21:00,71.3,21.3,30.18,North,349,6.0,7.0,15,0.00,,,0.00,WeatherCatV1.11B39,2013-04-25 20:21:00,
2013-04-25 16:26:00,71.3,22.8,30.18,North,8,6.0,6.0,16,0.00,,,0.00,WeatherCatV1.11B39,2013-04-25 20:26:00,
2013-04-25 16:31:00,71.5,23.0,30.17,NNE,28,1.0,5.0,16,0.00,,,0.00,WeatherCatV1.11B39,2013-04-25 20:31:00,
2013-04-25 16:36:00,71.8,20.0,30.17,SSE,152,0.0,3.0,14,0.00,,,0.00,WeatherCatV1.11B39,2013-04-25 20:36:00,
2013-04-25 16:41:00,71.8,23.2,30.17,North,359,4.0,10.0,16,0.00,,,0.00,WeatherCatV1.11B39,2013-04-25 20:41:00,
2013-04-25 16:46:00,71.3,17.9,30.17,North,0,6.0,7.0,13,0.00,,,0.00,WeatherCatV1.11B39,2013-04-25 20:46:00,
2013-04-25 16:51:00,71.1,21.1,30.17,North,6,2.0,5.0,15,0.00,,,0.00,WeatherCatV1.11B39,2013-04-25 20:51:00,
2013-04-25 16:56:00,71.5,23.0,30.17,North,3,1.0,5.0,16,0.00,,,0.00,WeatherCatV1.11B39,2013-04-25 20:56:00,
2013-04-25 17:01:00,71.8,20.0,30.18,North,0,0.0,6.0,14,0.00,,,0.00,WeatherCatV1.11B39,2013-04-25 21:01:00,
2013-04-25 17:06:00,71.8,21.7,30.18,North,1,2.0,2.0,15,0.00,,,0.00,WeatherCatV1.11B39,2013-04-25 21:06:00,
2013-04-25 17:11:00,71.8,23.2,30.18,North,7,4.0,7.0,16,0.00,,,0.00,WeatherCatV1.11B39,2013-04-25 21:11:00,
2013-04-25 17:16:00,71.6,23.0,30.18,North,357,2.0,6.0,16,0.00,,,0.00,WeatherCatV1.11B39,2013-04-25 21:16:00,
2013-04-25 17:21:00,71.5,24.4,30.18,North,359,0.0,2.0,17,0.00,,,0.00,WeatherCatV1.11B39,2013-04-25 21:21:00,
2013-04-25 17:26:00,71.6,21.5,30.18,North,359,2.0,7.0,15,0.00,,,0.00,WeatherCatV1.11B39,2013-04-25 21:26:00,
2013-04-25 17:31:00,71.1,25.4,30.18,North,0,1.0,8.0,18,0.00,,,0.00,WeatherCatV1.11B39,2013-04-25 21:31:00,
2013-04-25 17:36:00,70.9,25.3,30.18,North,0,5.0,6.0,18,0.00,,,0.00,WeatherCatV1.11B39,2013-04-25 21:36:00,
2013-04-25 17:41:00,70.6,19.1,30.18,North,352,7.0,10.0,14,0.00,,,0.00,WeatherCatV1.11B39,2013-04-25 21:41:00,
2013-04-25 17:46:00,70.3,22.0,30.19,WSW,248,3.0,8.0,16,0.00,,,0.00,WeatherCatV1.11B39,2013-04-25 21:46:00,
2013-04-25 17:51:00,69.9,20.2,30.19,North,0,8.0,8.0,15,0.00,,,0.00,WeatherCatV1.11B39,2013-04-25 21:51:00,
2013-04-25 17:56:00,69.9,21.7,30.19,WNW,292,5.0,10.0,16,0.00,,,0.00,WeatherCatV1.11B39,2013-04-25 21:56:00,
2013-04-25 18:01:00,69.6,16.6,30.20,West,267,2.0,10.0,13,0.00,,,0.00,WeatherCatV1.11B39,2013-04-25 22:01:00,
2013-04-25 18:06:00,69.6,18.3,30.20,North,0,2.0,7.0,14,0.00,,,0.00,WeatherCatV1.11B39,2013-04-25 22:06:00,
2013-04-25 18:11:00,69.4,14.6,30.20,North,0,0.0,8.0,12,0.00,,,0.00,WeatherCatV1.11B39,2013-04-25 22:11:00,
2013-04-25 18:16:00,69.3,18.1,30.21,NNW,342,2.0,2.0,14,0.00,,,0.00,WeatherCatV1.11B39,2013-04-25 22:16:00,
2013-04-25 18:21:00,69.1,22.5,30.21,North,356,6.0,7.0,17,0.00,,,0.00,WeatherCatV1.11B39,2013-04-25 22:21:00,
2013-04-25 18:26:00,68.9,20.9,30.21,NNE,17,1.0,5.0,16,0.00,,,0.00,WeatherCatV1.11B39,2013-04-25 22:26:00,
2013-04-25 18:31:00,68.9,22.3,30.21,North,0,8.0,8.0,17,0.00,,,0.00,WeatherCatV1.11B39,2013-04-25 22:31:00,
2013-04-25 18:36:00,68.8,22.2,30.21,WNW,287,0.0,6.0,17,0.00,,,0.00,WeatherCatV1.11B39,2013-04-25 22:36:00,
2013-04-25 18:41:00,68.6,22.1,30.21,North,353,0.0,0.0,17,0.00,,,0.00,WeatherCatV1.11B39,2013-04-25 22:41:00,
2013-04-25 18:46:00,68.4,20.5,30.21,NNW,344,0.0,1.0,16,0.00,,,0.00,WeatherCatV1.11B39,2013-04-25 22:46:00,
2013-04-25 18:51:00,68.3,23.2,30.21,North,0,0.0,6.0,18,0.00,,,0.00,WeatherCatV1.11B39,2013-04-25 22:51:00,
2013-04-25 18:56:00,68.1,23.0,30.21,North,0,6.0,6.0,18,0.00,,,0.00,WeatherCatV1.11B39,2013-04-25 22:56:00,
2013-04-25 19:01:00,67.9,21.5,30.21,NNW,329,1.0,3.0,17,0.00,,,0.00,WeatherCatV1.11B39,2013-04-25 23:01:00,
2013-04-25 19:06:00,67.8,24.0,30.21,NW,320,0.0,3.0,19,0.00,,,0.00,WeatherCatV1.11B39,2013-04-25 23:06:00,
2013-04-25 19:11:00,67.6,27.4,30.21,North,349,2.0,3.0,22,0.00,,,0.00,WeatherCatV1.11B39,2013-04-25 23:11:00,
2013-04-25 19:16:00,67.3,23.6,30.21,North,357,0.0,13.0,19,0.00,,,0.00,WeatherCatV1.11B39,2013-04-25 23:16:00,
2013-04-25 19:21:00,67.3,24.9,30.21,NNW,332,5.0,6.0,20,0.00,,,0.00,WeatherCatV1.11B39,2013-04-25 23:21:00,
2013-04-25 19:26:00,66.8,26.7,30.21,North,354,0.0,7.0,22,0.00,,,0.00,WeatherCatV1.11B39,2013-04-25 23:26:00,
2013-04-25 19:31:00,66.4,24.1,30.22,North,0,0.0,6.0,20,0.00,,,0.00,WeatherCatV1.11B39,2013-04-25 23:31:00,
2013-04-25 19:36:00,66.3,21.5,30.22,North,356,0.0,1.0,18,0.00,,,0.00,WeatherCatV1.11B39,2013-04-25 23:36:00,
2013-04-25 19:41:00,66.0,24.9,30.22,North,356,0.0,0.0,21,0.00,,,0.00,WeatherCatV1.11B39,2013-04-25 23:41:00,
2013-04-25 19:46:00,65.3,25.5,30.22,North,356,0.0,0.0,22,0.00,,,0.00,WeatherCatV1.11B39,2013-04-25 23:46:00,
2013-04-25 19:51:00,64.8,27.2,30.22,WNW,292,0.0,1.0,24,0.00,,,0.00,WeatherCatV1.11B39,2013-04-25 23:51:00,
2013-04-25 19:56:00,64.5,23.7,30.22,WNW,292,0.0,0.0,21,0.00,,,0.00,WeatherCatV1.11B39,2013-04-25 23:56:00,
2013-04-25 20:02:00,64.0,24.4,30.22,WNW,292,0.0,0.0,22,0.00,,,0.00,WeatherCatV1.11B39,2013-04-26 00:02:00,
2013-04-25 20:07:00,63.7,25.2,30.22,North,0,0.0,1.0,23,0.00,,,0.00,WeatherCatV1.11B39,2013-04-26 00:07:00,
2013-04-25 20:12:00,63.4,27.0,30.22,North,0,0.0,7.0,25,0.00,,,0.00,WeatherCatV1.11B39,2013-04-26 00:12:00,
2013-04-25 20:17:00,63.2,29.6,30.22,North,359,0.0,3.0,28,0.00,,,0.00,WeatherCatV1.11B39,2013-04-26 00:17:00,
2013-04-25 20:22:00,62.7,26.4,30.22,North,359,0.0,0.0,25,0.00,,,0.00,WeatherCatV1.11B39,2013-04-26 00:22:00,
2013-04-25 20:27:00,62.4,27.1,30.22,North,359,0.0,0.0,26,0.00,,,0.00,WeatherCatV1.11B39,2013-04-26 00:27:00,
2013-04-25 20:32:00,61.8,27.5,30.23,North,359,0.0,0.0,27,0.00,,,0.00,WeatherCatV1.11B39,2013-04-26 00:32:00,
2013-04-25 20:37:00,61.3,28.8,30.23,North,359,0.0,0.0,29,0.00,,,0.00,WeatherCatV1.11B39,2013-04-26 00:37:00,
2013-04-25 20:42:00,60.9,32.3,30.23,North,359,0.0,0.0,34,0.00,,,0.00,WeatherCatV1.11B39,2013-04-26 00:42:00,
2013-04-25 20:47:00,60.5,27.2,30.23,North,359,0.0,0.0,28,0.00,,,0.00,WeatherCatV1.11B39,2013-04-26 00:47:00,
2013-04-25 20:52:00,60.1,32.4,30.23,North,359,0.0,0.0,35,0.00,,,0.00,WeatherCatV1.11B39,2013-04-26 00:52:00,
2013-04-25 20:57:00,59.8,32.1,30.23,North,359,0.0,0.0,35,0.00,,,0.00,WeatherCatV1.11B39,2013-04-26 00:57:00,
2013-04-25 21:02:00,59.3,31.7,30.23,North,359,0.0,0.0,35,0.00,,,0.00,WeatherCatV1.11B39,2013-04-26 01:02:00,
2013-04-25 21:07:00,59.0,30.7,30.23,North,357,0.0,0.0,34,0.00,,,0.00,WeatherCatV1.11B39,2013-04-26 01:07:00,
2013-04-25 21:12:00,58.7,32.5,30.23,North,357,0.0,0.0,37,0.00,,,0.00,WeatherCatV1.11B39,2013-04-26 01:12:00,
2013-04-25 21:17:00,58.4,32.9,30.24,North,357,0.0,0.0,38,0.00,,,0.00,WeatherCatV1.11B39,2013-04-26 01:17:00,
2013-04-25 21:22:00,58.0,33.2,30.24,North,357,0.0,0.0,39,0.00,,,0.00,WeatherCatV1.11B39,2013-04-26 01:22:00,
2013-04-25 21:27:00,57.6,32.2,30.24,North,357,0.0,0.0,38,0.00,,,0.00,WeatherCatV1.11B39,2013-04-26 01:27:00,
2013-04-25 21:32:00,57.5,30.8,30.24,North,357,0.0,0.0,36,0.00,,,0.00,WeatherCatV1.11B39,2013-04-26 01:32:00,
2013-04-25 21:37:00,57.5,33.4,30.24,North,357,0.0,0.0,40,0.00,,,0.00,WeatherCatV1.11B39,2013-04-26 01:37:00,
2013-04-25 21:42:00,57.5,34.0,30.24,NNW,336,0.0,1.0,41,0.00,,,0.00,WeatherCatV1.11B39,2013-04-26 01:42:00,
2013-04-25 21:47:00,57.3,33.2,30.24,NNW,336,0.0,1.0,40,0.00,,,0.00,WeatherCatV1.11B39,2013-04-26 01:47:00,
2013-04-25 21:52:00,57.3,35.0,30.24,North,353,0.0,2.0,43,0.00,,,0.00,WeatherCatV1.11B39,2013-04-26 01:52:00,
2013-04-25 21:57:00,57.3,34.4,30.24,North,353,0.0,1.0,42,0.00,,,0.00,WeatherCatV1.11B39,2013-04-26 01:57:00,
2013-04-25 22:02:00,57.0,31.6,30.25,North,353,0.0,0.0,38,0.00,,,0.00,WeatherCatV1.11B39,2013-04-26 02:02:00,
2013-04-25 22:07:00,56.5,31.8,30.25,North,353,0.0,0.0,39,0.00,,,0.00,WeatherCatV1.11B39,2013-04-26 02:07:00,
2013-04-25 22:12:00,56.2,31.6,30.25,North,353,0.0,0.0,39,0.00,,,0.00,WeatherCatV1.11B39,2013-04-26 02:12:00,
2013-04-25 22:17:00,55.9,31.9,30.26,North,353,0.0,0.0,40,0.00,,,0.00,WeatherCatV1.11B39,2013-04-26 02:17:00,
2013-04-25 22:22:00,55.9,31.3,30.26,North,353,0.0,0.0,39,0.00,,,0.00,WeatherCatV1.11B39,2013-04-26 02:22:00,
2013-04-25 22:27:00,55.6,33.5,30.26,North,353,0.0,0.0,43,0.00,,,0.00,WeatherCatV1.11B39,2013-04-26 02:27:00,
2013-04-25 22:32:00,55.4,32.1,30.27,North,353,0.0,0.0,41,0.00,,,0.00,WeatherCatV1.11B39,2013-04-26 02:32:00,
2013-04-25 22:37:00,55.1,33.6,30.27,North,353,0.0,0.0,44,0.00,,,0.00,WeatherCatV1.11B39,2013-04-26 02:37:00,
2013-04-25 22:42:00,54.8,31.6,30.27,North,353,0.0,0.0,41,0.00,,,0.00,WeatherCatV1.11B39,2013-04-26 02:42:00,
2013-04-25 22:47:00,54.8,32.2,30.27,North,353,0.0,0.0,42,0.00,,,0.00,WeatherCatV1.11B39,2013-04-26 02:47:00,
2013-04-25 22:52:00,54.8,32.2,30.27,North,353,0.0,0.0,42,0.00,,,0.00,WeatherCatV1.11B39,2013-04-26 02:52:00,
2013-04-25 22:57:00,54.5,31.3,30.27,North,353,0.0,0.0,41,0.00,,,0.00,WeatherCatV1.11B39,2013-04-26 02:57:00,
2013-04-25 23:02:00,54.4,32.9,30.27,North,353,0.0,0.0,44,0.00,,,0.00,WeatherCatV1.11B39,2013-04-26 03:02:00,
2013-04-25 23:07:00,54.2,32.8,30.27,North,353,0.0,0.0,44,0.00,,,0.00,WeatherCatV1.11B39,2013-04-26 03:07:00,
2013-04-25 23:12:00,53.9,34.1,30.27,North,353,0.0,0.0,47,0.00,,,0.00,WeatherCatV1.11B39,2013-04-26 03:12:00,
2013-04-25 23:17:00,53.6,33.3,30.27,North,353,0.0,0.0,46,0.00,,,0.00,WeatherCatV1.11B39,2013-04-26 03:17:00,
2013-04-25 23:22:00,53.5,33.2,30.27,North,353,0.0,0.0,46,0.00,,,0.00,WeatherCatV1.11B39,2013-04-26 03:22:00,
2013-04-25 23:27:00,53.3,35.1,30.27,North,353,0.0,0.0,50,0.00,,,0.00,WeatherCatV1.11B39,2013-04-26 03:27:00,
2013-04-25 23:32:00,53.1,33.9,30.27,North,353,0.0,0.0,48,0.00,,,0.00,WeatherCatV1.11B39,2013-04-26 03:32:00,
2013-04-25 23:37:00,52.9,34.8,30.27,North,353,0.0,0.0,50,0.00,,,0.00,WeatherCatV1.11B39,2013-04-26 03:37:00,
2013-04-25 23:42:00,52.8,33.1,30.27,North,353,0.0,0.0,47,0.00,,,0.00,WeatherCatV1.11B39,2013-04-26 03:42:00,
2013-04-25 23:47:00,52.5,32.9,30.27,North,353,0.0,0.0,47,0.00,,,0.00,WeatherCatV1.11B39,2013-04-26 03:47:00,
2013-04-25 23:52:00,52.3,32.7,30.27,North,353,0.0,0.0,47,0.00,,,0.00,WeatherCatV1.11B39,2013-04-26 03:52:00,
2013-04-25 23:57:00,52.0,32.9,30.27,North,353,0.0,0.0,48,0.00,,,0.00,WeatherCatV1.11B39,2013-04-26 03:57:00,